Hourly Data Report for January 30, 2015

All times are specified in Local Standard Time (LST). Add 1 hour to adjust for Daylight Saving Time where and when it is observed.

Metadata including Station Name, Province, Latitude, Longitude, Elevation, Climate ID, WMO ID, TC ID
WEKWEETI A
NORTHWEST TERRITORIES
Latitude: 64°11'27.000" N Longitude: 114°04'36.000" W Elevation: 368.20 m
Climate ID: 2203980 WMO ID: TC ID: YWE
Hourly Data Report for January 30, 2015
Temp Definition
°C

Dew Point Temp Definition
°C

Rel Hum Definition
%

Wind Dir Definition
10's deg
Wind Spd Definition
km/h

Visibility Definition
km

Stn Press Definition
kPa

Hmdx Definition

Wind Chill Definition

Weather Definition

00:00 Legend Double Dagger -30.8 -34.5 71 32 13 16.1 98.30 -42 LegendNANA
01:00 Legend Double Dagger -31.3 -35.0 71 31 15 16.1 98.35 -43 LegendNANA
02:00 Legend Double Dagger -31.7 -35.5 70 32 9 16.1 98.44 -41 LegendNANA
03:00 Legend Double Dagger -33.0 -36.9 69 LegendMM 4 16.1 98.54 -38 LegendNANA
04:00 Legend Double Dagger -32.7 -36.6 69 32 8 16.1 98.60 -41 LegendNANA
05:00 Legend Double Dagger -33.4 -37.4 68 32 11 16.1 98.70 -44 LegendNANA
06:00 Legend Double Dagger -33.9 -37.8 69 34 9 16.1 98.76 -43 LegendNANA
07:00 Legend Double Dagger -36.2 -40.4 66 29 9 16.1 98.81 -46 LegendNANA
08:00 Legend Double Dagger -36.1 -40.5 65 27 5 16.1 98.87 -43 LegendNANA
09:00 Legend Double Dagger -36.1 -40.2 67 30 5 16.1 98.92 -43 LegendNANA
10:00 Legend Double Dagger -36.8 -41.2 65 25 11 16.1 98.98 -48 LegendNANA
11:00 Legend Double Dagger -37.6 -41.9 65 LegendMM 4 11.3 99.05 -43 LegendNANA
12:00 Legend Double Dagger -37.7 -42.2 64 28 5 16.1 99.09 -44 LegendNANA
13:00 Legend Double Dagger -35.4 -39.5 67 25 5 16.1 99.15 -42 LegendNANA
14:00 Legend Double Dagger -35.4 -39.5 67 26 5 16.1 99.16 -42 LegendNANA
15:00 Legend Double Dagger -35.9 -40.1 66 27 9 11.3 99.19 -46 LegendNANA
16:00 Legend Double Dagger -37.1 -41.5 65 25 9 16.1 99.19 -47 LegendNANA
17:00 Legend Double Dagger -37.4 -41.7 65 28 9 16.1 99.21 -47 LegendNANA
18:00 Legend Double Dagger -37.6 -41.9 65 27 9 16.1 99.20 -48 LegendNANA
19:00 Legend Double Dagger -37.4 -41.9 64 23 4 16.1 99.17 -43 LegendNANA
20:00 Legend Double Dagger -37.5 -41.8 65 28 9 16.1 99.16 -47 LegendNANA
21:00 Legend Double Dagger -38.3 -42.8 64 25 5 16.1 99.16 -45 LegendNANA
22:00 Legend Double Dagger -38.7 -43.2 64 28 8 16.1 99.15 -48 LegendNANA
23:00 Legend Double Dagger -38.2 -42.8 63 27 8 16.1 99.13 -48 LegendNANA

Notes on Data Quality.

Legend
  • E = Estimated
  • M = Missing
  • NA = Not Available
  • ‡ = Partner data that is not subject to review by the National Climate Archives